Regional Weather Roundup
Issued by NWS

Home | Current Version | Previous Version | Graphics & Text | Print | Product List | Glossary On
Versions: 1 2 3 4 5 6 7 8 9 10 11 12 13 14 15 16 17 18 19 20 21 22 23 24 25 26 27 28 29 30 31 32 33 34 35 36 37 38 39 40 41 42 43 44 45 46 47 48 49 50
000
ASUS43 KFSD 220102
RWRSD

WEATHER ROUNDUP FOR SOUTH DAKOTA
NATIONAL WEATHER SERVICE SIOUX FALLS SD
700 PM CST TUE FEB 21 2017

NOTE: "FAIR" INDICATES FEW OR NO CLOUDS BELOW 12,000 FEET WITH NO
SIGNIFICANT WEATHER AND/OR OBSTRUCTIONS TO VISIBILITY.


SDZ001>005-009-010-012>017-220200-
NORTHWEST AND NORTH CENTRAL SOUTH DAKOTA

CITY           SKY/WX    TMP DP  RH WIND       PRES   REMARKS
BUFFALO          N/A     59  23  25 W31G40    29.60R
FAITH            N/A     54  39  57 W8        29.62F
MOBRIDGE       PTCLDY    53  37  54 E9        29.59S
$$

SDZ012>016-024>037-041>051-057-063-072>074-220200-
SOUTHWEST AND SOUTH CENTRAL SOUTH DAKOTA

CITY           SKY/WX    TMP DP  RH WIND       PRES   REMARKS
RAPID CTY ARPT PTCLDY    57  31  37 NW17      29.68R
PIERRE         CLEAR     57  36  45 SE9       29.60F
CUSTER         CLEAR     53  18  25 W20G32    29.76R
ELLSWORTH AFB  PTCLDY    59  33  37 NW31      29.68R
PHILIP         CLEAR     57  30  35 W7        29.63R
PINE RIDGE     CLEAR     63  27  25 W17       29.74F
SPEARFISH      MOCLDY    57  30  35 SW24G38   29.71R
WINNER         FAIR      62  34  35 W8        29.67S
$$

SDZ004>011-016>023-039-040-220200-
NORTHEAST SOUTH DAKOTA

CITY           SKY/WX    TMP DP  RH WIND       PRES   REMARKS
ABERDEEN       CLEAR     48  40  73 E3        29.66R
WATERTOWN      CLEAR     49  40  71 CALM      29.67F
BROOKINGS      CLEAR     56  39  53 S5        29.69
SISSETON         N/A     47  41  80 W3        29.67S
$$

SDZ017-020-022-023-036>040-048>070-220200-
SOUTHEAST SOUTH DAKOTA

CITY           SKY/WX    TMP DP  RH WIND       PRES   REMARKS
SIOUX FALLS    PTCLDY    50  39  66 CALM      29.70S
HURON          CLEAR     57  36  45 SE8       29.65S
CHAMBERLAIN    CLEAR     54  40  60 SE7       29.65S
MITCHELL       CLEAR     59  37  44 S5        29.67F
YANKTON        CLEAR     64  37  36 CALM      29.69S
$$

ABBREVIATIONS USED IN REMARKS
   TC - TEMPERATURE IN CELSIUS
  WCI - WIND CHILL INDEX
   HX - HEAT INDEX
  VSB - VISIBILITY





USA.gov is the U.S. government's official web portal to all federal, state and local government web resources and services.